Flag for Poland Weather past 2 weeks in Bydgoszcz, Poland

Now
70 °F

Scattered clouds.


Feels Like: 77 °F
Forecast: 51 / 73 °F
Wind: 3 mph from South

Location: Torun


UV Index: 0 (Low)

Visibility: 19 mi


Pressure: 30.11 "Hg

Humidity: 49%

Dew point: 50 °F

Location of BydgoszczLocation

Historic Weather in Bydgoszcz

°F

Bydgoszcz temperature yesterday

Maximum temperature yesterday: 70 °F (at 2:00 PM)
Minimum temperature yesterday: 47 °F (at 6:00 AM)
Average temperature yesterday: 60 °F

Past Weeks' High & Low Weather Summary

 TemperatureHumidityPressure
High74 °F (Apr 19, 4:00 PM)100% (Apr 11, 4:00 AM)30.42 "Hg (Apr 11, 4:00 AM)
Low24 °F (Apr 17, 6:00 AM)29% (Apr 18, 5:00 PM)29.60 "Hg (Apr 14, 3:00 PM)
Average51 °F74%29.99 "Hg
* Reported Apr 8 1:00 PM — Apr 23 1:00 PM, Bydgoszcz, Weather by CustomWeather, © 2014

Note: Actual official high and low records may vary slightly from our data, if they occured in-between our weather recording intervals... More about our weather records

Advertising

Historic Weather Conditions — Data for Previous 24 hours

 ConditionsComfort  
Time TempWeatherWind HumidityBarometerVisibility
1:00 PM
Apr 23
70 °FScattered clouds.3 mph49%30.11 "Hg19 mi
12:00 PM71 °FScattered clouds.3 mph53%30.11 "Hg16 mi
11:00 AM68 °FScattered clouds.2 mph55%30.10 "Hg14 mi
10:00 AM64 °FScattered clouds.1 mph66%30.10 "Hg14 mi
9:00 AM57 °FPartly sunny.1 mph85%30.09 "Hg7 mi
8:00 AM54 °FFog.1 mph88%30.08 "Hg6 mi
7:00 AM52 °FFog.1 mph92%30.07 "Hg5 mi
6:00 AM51 °FOvercast.1 mph93%30.05 "Hg6 mi
5:00 AM51 °FPassing clouds.1 mph93%30.05 "Hg6 mi
4:00 AM51 °FOvercast.2 mph94%30.04 "Hg6 mi
3:00 AM51 °FPassing clouds.1 mph95%30.03 "Hg6 mi
2:00 AM51 °FPassing clouds.1 mph94%30.03 "Hg6 mi
1:00 AM52 °FPassing clouds.No wind91%30.01 "Hg7 mi
12:00 AM54 °FPassing clouds.1 mph88%30.01 "Hg9 mi
11:00 PM
Apr 22
56 °FPassing clouds.1 mph84%30.00 "Hg12 mi
10:00 PM57 °FPassing clouds.2 mph78%29.99 "Hg15 mi
9:00 PM59 °FPassing clouds.1 mph75%29.98 "Hg19 mi
8:00 PM63 °FThunderstorms. Overcast.1 mph64%29.96 "Hg28 mi
7:00 PM65 °FThunderstorms. Partly sunny.2 mph56%29.94 "Hg31 mi
6:00 PM67 °FPartly sunny.3 mph55%29.93 "Hg28 mi
5:00 PM70 °FPartly sunny.2 mph45%29.92 "Hg25 mi
4:00 PM70 °FSprinkles. Partly sunny.2 mph46%29.92 "Hg22 mi
3:00 PM70 °FScattered clouds.3 mph46%29.92 "Hg19 mi
2:00 PM70 °FScattered clouds.3 mph48%29.93 "Hg19 mi
Weather by CustomWeather, © 2014

See weather overview